Location: B�rgermoos
(47.6500°N, 9.0667°E)
Time: 09:24:23
(UTC+00:00)

A-11 Canister half - Pass Details

Date: 12 August 2021
Orbit: 1526 x 1683 km, 47.3° (Epoch: 20 September)

Event Time Altitude Azimuth Distance (km) Brightness Sun altitude
Rises 12:23:06 0° 285° (WNW) 4,939 11.7 55.3°
Reaches altitude 10° 12:26:17 10° 283° (WNW) 3,946 11.4 55.1°
Maximum altitude 12:36:22 72° 202° (SSW) 1,729 11.1 54.3°
Drops below altitude 10° 12:46:11 10° 121° (ESE) 3,849 11.2 53.4°
Sets 12:49:15 0° 119° (ESE) 4,813 11.6 53.2°
